Terminal Aerodrome Forecast
Issued by NWS

Home | Current Version | Previous Version | Graphics & Text | Print | Product List | Glossary On
Versions: 1 2 3 4 5 6 7 8 9 10 11 12 13 14 15
038
FTUS43 KOAX 080520
TAFCDR
TAF
KCDR 080520Z 0806/0906 29015G24KT P6SM SCT250
     FM081800 29012KT P6SM BKN080
     FM090100 30007KT P6SM BKN080=

USA.gov is the U.S. government's official web portal to all federal, state and local government web resources and services.